This demonstration page uses our WeatherBlox Daily Observations layout. Learn more.

Left ArrowRight Arrow

39.51506, -84.39828

Hourly Observations for June 9, 2018

Temp ( °F °C ) Dew Point ( °F °C ) Humidity (%) Winds ( mph kmh ) Pressure ( in mb ) Visibility ( mi km ) Precip ( " mm )
12:15 am 00:15 Clear with Nearby Thunderstorms 67 19.2 64 18 93 93 NNW 3 6 30.12 1020 10 16 0.00 0.00
12:35 am 00:35 Clear 66 18.7 64 18 96 96 Calm 30.12 1020 10 16 0.00 0.00
12:55 am 00:55 Clear with Nearby Thunderstorms 65 18.4 64 18 98 98 N 5 7 30.12 1020 7 11 0.00 0.00
1:15 am 01:15 Clear 65 18.4 64 17.6 95 95 NNW 5 7 30.12 1020 10 16 0.00 0.00
1:35 am 01:35 Clear 66 18.8 64 17.6 93 93 Calm 30.12 1020 10 16 0.00 0.00
1:55 am 01:55 Clear 65 18.3 64 17.5 95 95 Calm 30.12 1020 10 16 0.00 0.00
2:15 am 02:15 Clear 64 17.8 63 17.2 96 96 S 5 7 30.09 1019 10 16 0.00 0.00
2:35 am 02:35 Clear 64 18 63 17.4 96 96 WSW 3 6 30.09 1019 10 16 0.00 0.00
2:55 am 02:55 Clear 65 18.1 64 17.7 98 98 SW 5 7 30.09 1019 7 11 0.00 0.00
3:15 am 03:15 Clear 65 18.3 64 17.6 96 96 SSW 3 6 30.09 1019 10 16 0.00 0.00
3:35 am 03:35 Clear 64 18 64 17.5 97 97 SW 5 7 30.09 1019 7 11 0.00 0.00
3:55 am 03:55 Clear 65 18.3 64 17.7 96 96 SW 3 6 30.09 1019 10 16 0.00 0.00
4:15 am 04:15 Clear 65 18.5 64 17.8 96 96 SW 3 6 30.09 1019 10 16 0.00 0.00
4:35 am 04:35 Clear 65 18.6 64 17.9 96 96 SW 6 9 30.09 1019 7 11 0.00 0.00
4:55 am 04:55 Clear with Mist and Fog 65 18.4 64 17.9 97 97 SW 5 7 30.09 1019 5 8 0.00 0.00
5:15 am 05:15 Clear with Mist and Fog 65 18.4 64 17.9 97 97 SSW 3 6 30.09 1019 5 8 0.00 0.00
5:35 am 05:35 Clear with Mist and Fog 65 18.4 64 17.9 97 97 Calm 30.06 1018 5 8 0.00 0.00
5:55 am 05:55 Clear with Mist and Fog 65 18.1 64 17.6 97 97 Calm 30.09 1019 5 8 0.00 0.00
6:15 am 06:15 Sunny with Mist and Fog 64 17.9 64 17.6 98 98 Calm 30.09 1019 3 4 0.00 0.00
6:35 am 06:35 Mostly Cloudy with Mist and Fog 64 17.6 63 17.4 99 99 Calm 30.09 1019 2 3 0.00 0.00
6:55 am 06:55 Sunny with Mist and Fog 64 17.9 64 17.8 99 99 ENE 5 7 30.09 1019 3 4 0.00 0.00
7:15 am 07:15 Sunny with Mist and Fog 66 18.7 65 18.4 98 98 NE 7 11 30.09 1019 3 5 0.00 0.00
7:35 am 07:35 Sunny with Mist and Fog 66 18.7 64 18 96 96 NE 6 9 30.09 1019 4 6 0.00 0.00
7:55 am 07:55 Sunny with Mist and Fog 67 19.3 65 18.3 94 94 NE 5 7 30.09 1019 5 8 0.00 0.00
8:15 am 08:15 Sunny 69 20.4 65 18.4 88 88 ENE 5 7 30.12 1020 10 16 0.00 0.00
8:35 am 08:35 Sunny 70 20.9 65 18.6 87 87 NNE 5 7 30.09 1019 10 16 0.00 0.00
8:55 am 08:55 Sunny 71 21.6 66 18.7 84 84 NE 3 6 30.09 1019 10 16 0.00 0.00
9:15 am 09:15 Sunny 72 22.1 66 18.7 81 81 NE 6 9 30.09 1019 10 16 0.00 0.00
9:35 am 09:35 Sunny 73 22.9 66 18.8 78 78 NE 6 9 30.09 1019 10 16 0.00 0.00
9:55 am 09:55 Sunny 74 23.5 66 19 76 76 NNE 5 7 30.09 1019 10 16 0.00 0.00
10:15 am 10:15 Sunny 75 24.1 67 19.2 74 74 NNE 5 7 30.09 1019 10 16 0.00 0.00
10:35 am 10:35 Sunny 76 24.6 67 19.6 74 74 N 5 7 30.09 1019 10 16 0.00 0.00
10:55 am 10:55 Sunny 78 25.5 68 20 72 72 NNE 5 7 30.09 1019 10 16 0.00 0.00
11:15 am 11:15 Sunny 79 26.1 67 19.5 67 67 W 3 6 30.09 1019 10 16 0.00 0.00
11:35 am 11:35 Mostly Cloudy 79 26.3 66 18.8 63 63 Calm 30.09 1019 10 16 0.00 0.00
11:55 am 11:55 Sunny 80 26.7 67 19.2 64 64 Calm 30.06 1018 10 16 0.00 0.00
12:15 pm 12:15 Sunny 82 27.6 68 20.1 64 64 Calm 30.06 1018 10 16 0.00 0.00
12:35 pm 12:35 Sunny 83 28.2 68 19.8 60 60 Calm 30.06 1018 10 16 0.00 0.00
12:55 pm 12:55 Sunny 84 28.9 69 20.6 61 61 SSE 5 7 30.00 1016 10 16 0.00 0.00
1:15 pm 13:15 Sunny 85 29.3 70 20.9 61 61 S 7 11 30.00 1016 10 16 0.00 0.00
1:35 pm 13:35 Sunny 86 29.8 69 20.7 58 58 S 8 13 30.00 1016 10 16 0.00 0.00
1:55 pm 13:55 Sunny 86 30.1 69 20.6 57 57 SW 6 9 29.97 1015 10 16 0.00 0.00
2:15 pm 14:15 Sunny 87 30.7 69 20.7 55 55 SSW 8 13 29.97 1015 10 16 0.00 0.00
2:35 pm 14:35 Sunny 87 30.7 68 20.2 54 54 SW 9 15 29.97 1015 10 16 0.00 0.00
2:55 pm 14:55 Sunny 88 31.3 70 21 54 54 SW 8 13 29.97 1015 10 16 0.00 0.00
3:15 pm 15:15 Sunny 87 30.8 68 19.9 52 52 SW 5 7 29.94 1014 10 16 0.00 0.00
3:35 pm 15:35 Partly Cloudy 87 30.3 69 20.8 57 57 WSW 6 9 29.94 1014 10 16 0.00 0.00
3:55 pm 15:55 Mostly Cloudy 88 31 67 19.5 50 50 SW 7 11 29.94 1014 10 16 0.00 0.00
4:15 pm 16:15 Partly Cloudy with Nearby Thunderstorms 88 31.3 69 20.3 52 52 SSW 7 11 29.94 1014 10 16 0.00 0.00
4:35 pm 16:35 Partly Cloudy with Nearby Thunderstorms 89 31.9 66 18.7 45 45 SW 12 19 29.91 1013 10 16 0.00 0.00
4:55 pm 16:55 Sunny with Nearby Thunderstorms 89 31.5 66 18.9 47 47 SW 6 9 29.91 1013 10 16 0.00 0.00
5:15 pm 17:15 Partly Cloudy with Nearby Thunderstorms 78 25.5 67 19.3 69 69 NNW 16 26 29.97 1015 10 16 0.00 0.00
5:35 pm 17:35 Mostly Cloudy with Heavy Rain 74 23.5 67 19.7 79 79 W 15 24 30.00 1016 5 8 0.06 1.52
5:55 pm 17:55 Cloudy with Nearby Thunderstorms 71 21.5 67 19.5 88 88 NW 16 26 29.97 1015 5 8 0.30 7.62
6:15 pm 18:15 Cloudy with Light Rain 71 21.5 68 20 91 91 E 9 15 29.97 1015 10 16 0.00 0.00
6:35 pm 18:35 Mostly Cloudy with Light Rain 73 22.5 69 20.7 90 90 E 5 7 29.94 1014 7 11 0.02 0.51
6:55 pm 18:55 Partly Cloudy 73 22.8 69 20.7 88 88 NE 3 6 29.97 1015 10 16 0.02 0.51
7:15 pm 19:15 Sunny 73 22.5 68 19.8 85 85 E 5 7 29.97 1015 10 16 0.00 0.00
7:35 pm 19:35 Sunny 74 23.2 69 20.3 84 84 Calm 29.97 1015 10 16 0.00 0.00
7:55 pm 19:55 Sunny 73 22.7 69 20.5 87 87 Calm 29.94 1014 10 16 0.00 0.00
8:15 pm 20:15 Sunny 73 22.5 70 21.3 93 93 Calm 29.94 1014 10 16 0.00 0.00
8:35 pm 20:35 Sunny 72 22.2 70 21.2 94 94 Calm 29.94 1014 10 16 0.00 0.00
8:55 pm 20:55 Sunny with Mist and Fog 71 21.8 70 21.2 96 96 N 3 6 29.94 1014 5 8 0.00 0.00
9:15 pm 21:15 Clear with Mist and Fog 71 21.5 70 20.9 96 96 Calm 29.94 1014 5 8 0.00 0.00
9:35 pm 21:35 Clear with Mist and Fog 70 21.1 69 20.6 97 97 Calm 29.94 1014 5 8 0.00 0.00
9:55 pm 21:55 Clear with Mist and Fog 70 21 69 20.7 98 98 Calm 29.94 1014 5 8 0.00 0.00
10:15 pm 22:15 Clear 70 21.1 69 20.6 97 97 Calm 29.97 1015 7 11 0.00 0.00
10:35 pm 22:35 Clear with Mist and Fog 69 20.7 69 20.4 98 98 Calm 29.97 1015 4 6 0.00 0.00
10:55 pm 22:55 Clear with Mist and Fog 68 20.1 68 19.8 98 98 W 5 7 29.97 1015 3 4 0.00 0.00
11:15 pm 23:15 Clear with Mist and Fog 69 20.4 68 20.1 98 98 Calm 29.97 1015 5 8 0.00 0.00
11:35 pm 23:35 Clear with Mist and Fog 68 20 68 19.8 99 99 Calm 29.97 1015 3 4 0.00 0.00
11:55 pm 23:55 Clear with Mist and Fog 68 19.9 67 19.7 99 99 Calm 29.97 1015 3 4 0.00 0.00

Powered by AerisWeather